Find Starlink 32544

NORAD ID: 61917 Int'l Des: 2024-207 Owner: SPXS Country: US Constellation: starlink operational
LEOCIRCULAR

当前视图

正在加载3D地球...

About Starlink 32544

Starlink 32544 (NORAD 61917) is a starlink constellation satellite (v2 mini) launched Nov 11, 2024 by SPXS of US. It operates in LEO, CIRCULAR orbit with a mass of 730.00 kg.

即将过境

Passes for default location (London). Set your location on the main map for personalized predictions.

高度历史

Loading altitude history...

两行轨道根数

1 61917U 24207F 26263.27992266 .00012715 00000-0 47061-3 0 9998
2 61917 43.0002 262.6705 0001387 275.5612 84.5081 15.27592119104485
Epoch: Sep 20, 2026 • Age: 16 hours

当前状态

高度 482.8 km
远地点 / 近地点 N/A
速度 7.63 km/s
星下点 19.27°N, 71.04°E
发射日期 Nov 11, 2024
运行时间 1.8 years
类型 internet

技术详情

分类 Payload
质量 730.00 kg
干质量 700.00 kg
长度 0.30 m
跨度 29.00 m
形状 ? Box + pan
制造商 SPXS
平台类型 Starlink V2M
阶段状态 In Orbit
所有者/国家 SPXS/US

Most Searched